Regional Weather Roundup
Issued by NWS Sioux Falls, SD

Home | Current Version | Previous Version | Graphics & Text | Print | Product List | Glossary On
Versions: 1 2 3 4 5 6 7 8 9 10 11 12 13 14 15 16 17 18 19 20 21 22 23 24 25 26 27 28 29 30 31 32 33 34 35 36 37 38 39 40 41 42 43 44 45 46 47 48 49 50
000
ASUS43 KFSD 220010
RWRFSD

WEATHER ROUNDUP FOR SE SOUTH DAKOTA/SW MINNESOTA/NW IOWA
NATIONAL WEATHER SERVICE SIOUX FALLS SD
700 PM CDT THU SEP 21 2017

NOTE: "FAIR" INDICATES FEW OR NO CLOUDS BELOW 12,000 FEET WITH NO
SIGNIFICANT WEATHER AND OR OBSTRUCTIONS TO VISIBILITY.


SDZ038>040-050-052>070-220100-
SOUTHEAST SOUTH DAKOTA

CITY           SKY/WX    TMP DP  RH WIND       PRES   REMARKS
BROOKINGS      CLEAR     81  69  67 S10       29.71R
CHAMBERLAIN    CLEAR     85  61  43 SE8       29.63R
6HR MIN TEMP:  79; 6HR MAX TEMP:  91;

HURON          CLEAR     82  67  60 SE6       29.64S
6HR MIN TEMP:  77; 6HR MAX TEMP:  85;

MADISON        FAIR      81  72  74 S13G22    29.70R
MITCHELL       CLEAR     87  66  49 SE7       29.63S
6HR MIN TEMP:  78; 6HR MAX TEMP:  89;

SIOUX FALLS    CLEAR     84  72  67 S13       29.69S
6HR MIN TEMP:  80; 6HR MAX TEMP:  86;

WINNER         FAIR      83  64  52 E7        29.62S
YANKTON        CLEAR     86  72  62 SE9       29.66S
$$

MNZ071-072-080-081-089-090-097-098-220100-
SOUTHWEST MINNESOTA

CITY           SKY/WX    TMP DP  RH WIND       PRES   REMARKS
FAIRMONT       CLEAR     83  71  67 S15       29.77R
JACKSON        CLEAR     81  68  65 S8G16     29.78R
LUVERNE        CLEAR     81  70  69 S9G16     29.72S
MARSHALL       CLEAR     82  71  69 S16G23    29.70R
6HR MIN TEMP:  80; 6HR MAX TEMP:  87;

MONTEVIDEO     PTCLDY    82  72  69 S10G16    29.70R
PIPESTONE      CLEAR     81  72  74 S13G18    29.72S
REDWOOD FALLS  CLEAR     82  69  64 S10       29.72R
TRACY          CLEAR     82  71  70 S13G21    29.72S
WORTHINGTON    MOCLDY    80  71  74 S10       29.76S
$$

IAZ001>003-012>014-020>022-031-032-NEZ013-014-SDZ071-220100-
NORTHWEST IOWA

CITY           SKY/WX    TMP DP  RH WIND       PRES   REMARKS
CHEROKEE       CLEAR     82  74  76 S9        29.74R
DENISON        CLEAR     84  73  70 S14       29.77R
ESTHERVILLE    CLEAR     81  71  71 S14       29.76R
LE MARS        CLEAR     86  73  66 S14       29.71R
ORANGE CITY    CLEAR     84  75  74 S9        29.73R
SHELDON        CLEAR     82  73  74 SE10G18   29.72S
SIOUX CITY     CLEAR     86  73  65 S9        29.70S
6HR MIN TEMP:  83; 6HR MAX TEMP:  89;

SPENCER        CLEAR     83  71  67 S10G22    29.76R
6HR MIN TEMP:  80; 6HR MAX TEMP:  86;

STORM LAKE     CLEAR     82  72  69 S15       29.76S
$$

ABBREVIATIONS USED IN REMARKS
   TC - TEMPERATURE IN CELSIUS
  WCI - WIND CHILL INDEX
   HX - HEAT INDEX
  VSB - VISIBILITY





USA.gov is the U.S. government's official web portal to all federal, state and local government web resources and services.